SCP
-0 -0 -0 -0 -0 -0 -0 -0 -0 -0 -0 -0 -0 -0 -0 -0 -0 -0 -0 -0 0 -0 -0 0 0 0 0 0 0 0 0 0 0 0 0 0 0 0 -0 0 0 0 0 0 0
-0 -0 -0 -0 -0 -0 -0 -0 -0 -0 -0 -0 -0 -0 0 -0 0 0 0 0 0 -0 -0 -0 0 0 0 0 0 0 0 0 0 0 0 0 0 0 0 0 0 0 0 0 0
-0 -0 -0 -0 -0 -0 -0 -0 0 0 0 0 0 0 0 0 0 0 0 0 0 0 0 -0 0 0 0 0 0 0 0 0 0 0 0 0 0 0 0 0 0 0 0 0 0
-0 -0 -0 -0 -0 -0 -0 0 0 0 0 0 0 0 0 0 0 0 0 0 0 0 -0 -0 0 0 0 0 0 0 0 0 0 0 0 0 0 0 0 0 0 0 0 0 0
-0 -0 -0 -0 -0 -0 0 0 0 0 0 0 0 0 0 -0 -0 0 0 0 0 0 0 0 0 0 0 0 0 0 0 0 0 0 0 0 0 0 0 0 0 0 0 0 0
-0 -0 -0 -0 -0 -0 0 0 0 0 0 0 0 0 0 0 0 0 0 0 0 0 0 0 0 0 0 0 0 0 0 0 0 0 0 0 0 0 0 0 0 0 0 0 0
-0 -0 -0 -0 -0 -0 -0 0 0 0 0 0 0 -0 0 0 0 0 0 0 0 0 0 0 0 0 0 0 0 0 0 0 0 0 0 0 0 0 -0 -0 -0 0 0 0 0
-0 -0 -0 -0 -0 -0 -0 -0 0 0 0 0 -0 -0 0 0 0 0 0 0 0 0 0 0 0 0 0 0 0 0 0 0 0 0 0 0 0 -0 -0 -0 -0 -0 -0 0 0
-0 -0 -0 -0 -0 -0 -0 -0 0 0 0 0 -0 0 -0 0 0 0 0 0 0 0 0 0 0 0 0 0 0 0 0 0 0 0 0 0 0 -0 0 -0 -0 -0 -0 -0 -0
-0 -0 -0 -0 -0 -0 -0 0 0 0 0 0 0 0 0 0 0 0 0 0 0 0 0 0 0 0 0 0 0 0 0 0 0 0 0 0 0 0 0 0 -0 -0 -0 -0 -0
-0 -0 -0 -0 -0 -0 -0 0 0 0 0 0 0 0 -0 0 0 0 0 0 0 0 0 0 0 0 0 0 0 0 0 0 0 0 0 0 0 0 0 0 -0 -0 -0 0 0
-0 -0 -0 -0 -0 0 0 0 0 0 0 0 0 0 -0 -0 0 0 0 0 0 0 0 0 0 0 0 0 0 0 0 0 0 0 0 0 0 0 0 0 0 0 0 0 0
-0 -0 -0 -0 -0 0 0 0 -0 0 0 0 0 0 0 0 0 0 0 0 0 0 0 0 0 0 0 0 0 0 0 0 0 0 0 0 0 0 0 0 0 0 0 0 0
-0 -0 -0 -0 0 0 0 0 -0 0 0 0 0 0 0 0 0 0 0 0 0 0 0 0 0 0 0 0 0 0 0 0 0 0 0 0 0 0 0 0 0 0 0 0 0
-0 -0 -0 0 0 0 0 0 -0 0 0 0 0 0 0 0 0 0 0 0 0 0 0 0 0 0 0 0 0 0 0 0 0 0 0 0 0 0 0 0 0 0 0 0 0
-0 -0 -0 0 0 0 0 -0 0 0 0 0 0 0 0 0 0 0 0 0 0 0 0 0 0 0 0 0 0 0 0 0 0 0 0 0 0 0 0 0 0 0 0 0 0
-0 -0 0 0 0 0 -0 0 0 0 0 0 0 0 0 0 0 0 0 0 0 0 0 0 0 0 0 0 0 0 0 0 0 0 0 0 0 0 0 0 0 0 0 0 0
-0 0 0 -0 0 0 0 0 0 0 0 0 0 0 0 0 0 0 0 0 0 0 0 0 0 0 0 0 0 0 0 0 0 0 0 0 0 0 0 0 0 0 0 0 0
-0 0 0 0 0 0 0 0 0 0 0 0 0 0 0 0 0 0 0 0 0 0 0 0 0 0 0 0 0 0 0 0 0 0 0 0 0 0 0 0 0 0 0 0 -0
0 0 0 0 0 0 0 0 0 0 0 0 0 0 0 0 0 0 0 0 0 0 0 0 0 0 0 0 0 0 0 0 0 0 0 0 0 0 0 0 0 -0 -0 -0 -0
0 0 0 0 0 0 0 0 0 0 0 0 0 0 0 0 0 0 0 0 0 0 0 0 0 0 0 0 0 0 0 0 0 0 0 0 0 0 0 -0 0 0 0 0 -0
0 0 0 0 0 0 0 0 0 0 0 0 0 0 0 0 0 0 0 0 0 0 0 0 0 0 0 0 0 0 0 0 0 0 0 0 0 0 0 0 0 0 0 0 -0
0 0 0 0 0 0 0 0 0 0 0 0 0 0 0 0 0 0 0 0 0 0 0 0 0 0 0 0 0 0 0 0 0 0 0 0 0 0 0 0 0 0 0 0 -0
0 0 0 0 0 0 0 0 0 0 0 0 0 0 0 0 0 0 0 0 0 0 0 0 0 0 0 0 0 0 0 0 0 0 0 0 0 0 0 0 0 0 0 0 0
0 0 0 0 0 0 0 0 0 0 0 0 0 0 0 0 0 0 0 0 0 0 0 0 0 0 0 0 0 0 0 0 0 0 0 0 0 0 0 0 0 0 0 0 0
0 0 0 0 0 0 0 0 0 0 0 0 0 0 0 0 0 0 0 0 0 0 0 0 0 0 0 0 0 0 0 0 0 0 0 0 0 0 0 0 0 0 -0 -0 -0
0 0 0 0 0 0 0 0 0 0 0 0 0 0 0 0 0 0 0 0 0 0 0 0 0 0 0 0 0 0 0 0 0 0 0 0 0 0 -0 -0 -0 -0 -0 -0 0
Wind_Speed_500mb
18 19 20 20 20 19 19 18 16 13 18 20 19 23 24 27 23 25 27 28 33 38 42 26 24 6 11 6 1 3 9 3 6 8 11 11 10 9 9 21 17 17 14 16 15
20 19 19 20 21 21 19 17 16 17 22 22 19 16 20 30 37 34 30 34 38 41 44 45 38 25 19 13 9 10 7 11 8 4 5 14 10 24 9 16 20 38 19 21 27
22 20 20 21 23 22 17 14 14 19 23 19 13 14 15 14 25 22 29 34 31 35 41 43 39 15 15 12 19 4 6 7 5 9 30 11 12 12 7 19 48 41 50 40 32
24 21 21 22 23 21 15 13 15 20 19 15 13 16 17 12 8 19 22 25 28 31 28 34 42 13 10 8 20 5 3 6 13 34 31 14 19 12 8 29 50 55 55 48 41
24 23 23 23 22 18 12 15 18 19 16 14 14 16 14 15 15 20 23 26 30 18 31 33 33 16 8 9 15 5 9 34 41 42 36 19 23 10 10 47 43 41 41 36 37
24 24 25 25 22 16 14 16 17 16 13 11 16 20 14 10 18 16 17 18 23 22 20 25 18 21 4 6 2 11 22 31 29 29 12 10 14 9 22 38 47 48 46 41 40
23 23 26 25 21 17 15 12 10 9 6 9 14 18 6 9 5 2 9 13 17 18 21 22 25 16 15 15 9 12 14 19 10 8 7 16 16 14 19 40 47 58 62 62 62
21 21 24 22 20 17 15 10 7 3 5 10 14 21 7 6 3 3 11 15 15 12 18 24 21 21 6 7 14 11 8 9 13 15 7 11 17 10 16 34 41 50 58 61 62
17 17 18 18 21 20 15 9 4 5 9 15 19 14 8 5 9 4 8 11 12 15 20 21 12 2 4 7 10 12 8 9 17 10 8 4 17 14 27 26 44 54 57 61 65
16 11 11 11 15 19 17 13 7 12 13 19 15 9 8 16 10 9 6 18 12 20 15 18 6 7 7 9 7 14 7 11 13 13 12 14 23 6 30 34 45 50 56 49 52
24 8 4 6 9 10 17 7 14 3 26 29 29 31 39 9 14 27 22 18 17 9 4 10 12 4 11 10 15 10 8 15 10 18 6 14 22 8 25 28 35 43 42 47 44
28 11 2 3 6 7 10 13 13 16 20 29 32 37 36 32 21 29 21 7 9 7 2 12 4 16 9 11 4 8 5 10 10 9 10 20 38 14 12 15 32 12 31 39 50
30 13 5 9 3 10 17 15 13 24 7 18 6 9 10 13 18 35 14 16 11 7 9 11 16 7 5 7 11 5 2 10 15 9 12 12 35 11 10 7 9 14 28 37 37
31 16 8 13 7 7 7 11 20 17 8 8 2 7 7 9 8 21 27 24 5 16 7 9 9 1 3 4 3 8 5 10 19 13 10 6 28 5 3 8 6 22 26 37 40
32 19 6 19 10 2 11 17 12 8 6 6 4 7 25 2 16 38 14 5 9 10 10 19 6 4 3 5 4 11 10 11 19 10 6 10 5 11 7 5 10 16 13 29 35
32 20 7 13 13 10 20 8 1 9 1 7 7 14 14 21 11 28 22 17 15 4 3 9 9 5 7 4 8 11 9 12 9 5 3 5 7 11 8 8 9 8 20 15 27
29 18 7 15 8 17 18 2 9 9 8 9 7 9 3 11 10 11 12 14 6 11 9 12 9 5 8 6 7 19 13 9 11 8 9 7 8 18 13 15 11 8 13 10 13
25 7 8 14 3 16 8 8 8 6 5 4 7 7 6 14 6 15 12 11 7 6 2 2 11 7 6 4 6 4 11 9 10 6 11 10 12 12 16 14 13 10 6 5 22
17 10 12 5 12 17 7 9 8 2 4 7 8 8 9 10 6 12 10 4 3 3 3 5 8 9 9 5 8 5 1 6 3 4 7 9 13 16 11 17 17 23 11 19 23
14 12 13 11 18 14 8 2 4 8 1 5 3 2 4 7 9 14 9 5 7 3 5 7 13 8 2 5 4 6 7 1 4 7 9 9 11 15 13 17 17 14 19 27 36
9 8 10 14 17 8 7 2 5 12 15 5 8 6 5 4 3 4 9 14 11 9 5 5 7 9 4 8 14 5 4 3 5 7 6 8 12 10 23 25 14 18 26 29 44
12 7 26 13 8 6 3 9 10 7 16 5 5 2 5 4 5 7 13 13 20 2 7 2 6 9 19 21 9 12 15 11 8 11 10 11 28 23 18 7 17 39 38 41 52
13 9 19 12 7 8 16 11 9 13 8 11 3 3 5 2 7 7 8 14 40 6 7 4 4 8 20 11 3 7 10 11 5 6 20 17 16 8 17 25 38 34 35 48 58
14 8 13 21 16 6 9 9 12 22 3 12 5 9 7 6 10 11 16 14 10 32 47 11 10 17 20 29 7 23 25 27 11 9 21 27 43 47 33 21 27 36 50 57 69
14 7 9 8 10 11 3 10 10 14 16 18 10 9 7 8 8 10 7 9 19 37 9 11 15 14 28 37 30 37 41 37 31 37 22 42 41 40 27 13 18 37 40 51 68
11 11 11 8 17 11 10 8 7 11 7 9 6 14 12 10 13 12 8 8 17 7 7 2 13 7 20 30 29 34 36 45 41 32 29 25 28 9 16 24 31 44 58 69 79
19 13 7 6 9 5 1 6 9 11 15 7 12 9 10 11 24 46 55 60 42 12 6 8 6 2 10 7 16 17 21 22 8 6 8 15 30 6 21 25 50 60 73 78 78
Wind_Direction_500mb
49 54 55 49 39 28 20 20 29 75 121 120 104 89 65 56 75 100 74 54 36 30 28 33 39 3 3 28 79 126 60 38 310 28 275 301 352 4 344 342 339 346 332 342 4
54 56 51 43 33 26 22 24 40 94 120 121 107 76 52 74 86 86 66 44 30 30 29 29 20 54 49 41 46 71 96 216 224 276 330 327 330 322 338 316 320 329 335 338 326
55 55 45 34 27 21 22 36 67 106 123 120 90 44 40 106 81 70 61 47 36 27 28 21 21 43 52 46 16 1 136 210 300 21 346 311 303 313 328 320 314 311 312 313 314
50 50 41 28 20 17 29 60 90 114 116 97 62 39 44 54 90 84 68 50 35 31 20 17 16 42 44 24 349 20 9 65 313 329 338 320 312 291 248 298 320 313 306 298 291
49 44 32 22 18 23 56 83 103 111 106 88 44 28 48 66 103 75 58 37 25 32 30 17 21 24 6 342 353 52 323 325 324 323 323 328 336 315 324 359 349 346 342 319 300
42 38 31 21 27 49 75 98 109 110 98 60 37 28 44 62 101 61 39 26 24 20 10 2 351 355 349 346 71 313 303 299 311 319 315 13 316 21 324 0 353 353 348 340 333
35 36 30 32 45 68 81 103 114 110 59 28 10 4 356 57 104 35 24 22 6 20 348 341 330 318 317 332 347 315 326 335 3 9 301 357 330 320 332 343 339 338 333 329 321
27 30 32 43 54 70 71 78 98 100 1 352 338 335 302 250 312 4 358 357 29 24 336 333 325 278 240 288 351 360 47 4 294 330 320 66 277 263 322 330 320 331 330 322 319
11 23 32 52 69 64 52 36 349 295 311 319 315 329 297 289 246 282 13 9 12 353 350 357 347 299 29 60 2 2 261 277 312 283 312 180 262 254 311 312 318 324 327 323 319
356 2 29 60 76 59 44 28 307 262 284 306 296 299 240 336 249 280 274 309 297 309 333 352 15 67 43 68 292 276 265 256 255 283 215 255 261 262 310 313 313 317 321 321 316
0 336 9 85 102 67 46 32 22 27 307 275 265 270 279 288 273 269 290 300 237 273 22 355 47 295 248 211 227 254 230 248 267 262 281 240 270 265 254 291 302 315 345 338 332
1 341 270 159 128 48 25 43 41 336 303 294 270 265 263 273 292 306 273 212 183 242 89 14 268 237 249 278 262 284 286 314 304 355 318 292 285 267 214 234 284 2 358 355 355
1 353 191 162 119 84 68 60 2 341 315 303 337 272 286 247 247 283 261 216 182 200 228 163 245 304 314 2 23 330 116 294 271 302 262 284 280 283 263 309 318 331 345 350 351
353 354 205 188 161 140 16 6 344 344 55 288 31 24 355 253 284 316 289 238 195 207 235 219 288 277 341 131 98 316 285 320 307 326 280 160 290 217 332 320 300 335 358 356 356
342 338 246 205 188 205 321 309 323 307 40 310 33 31 3 69 16 6 10 281 219 227 107 244 280 297 159 218 220 238 329 265 287 255 334 285 356 263 351 316 307 304 352 10 21
333 327 267 209 193 277 310 309 359 47 254 344 35 3 18 3 11 4 11 18 317 349 342 256 288 83 180 275 111 266 340 349 44 86 3 263 99 267 277 234 291 305 56 24 6
333 323 274 198 211 297 316 217 45 112 343 355 337 351 124 343 12 24 349 3 25 2 344 329 312 103 35 4 354 37 41 332 346 360 233 261 320 243 264 254 237 288 48 72 46
345 3 125 137 250 320 340 56 83 55 356 22 334 341 73 18 18 352 8 354 7 91 162 128 315 332 353 151 272 281 149 161 258 235 268 313 239 253 227 266 307 284 143 12 347
13 111 123 99 343 334 338 61 181 243 276 347 328 53 344 14 351 12 330 259 162 49 63 316 260 277 304 148 119 274 167 189 200 248 274 243 282 315 271 289 288 336 325 322 331
66 83 81 5 340 325 66 149 134 343 117 78 93 339 298 311 22 5 328 289 337 174 160 249 288 252 237 13 14 138 180 39 15 288 255 267 266 245 295 280 280 290 289 306 325
33 76 6 337 322 330 107 217 312 20 352 189 212 245 232 279 223 259 259 299 35 305 318 120 140 271 260 215 223 319 311 131 136 218 279 290 258 219 287 294 274 276 278 297 317
27 55 9 334 24 20 40 321 318 340 346 296 111 139 232 273 261 248 231 217 358 60 324 276 187 256 249 259 261 183 204 175 129 264 230 270 275 254 251 259 306 292 288 302 321
9 346 13 29 58 345 327 319 336 348 5 26 54 73 350 266 333 238 259 286 311 11 323 234 295 333 313 352 7 188 194 208 177 162 240 266 272 242 282 297 275 255 292 317 316
5 9 18 62 75 85 353 314 333 347 61 357 323 47 344 260 223 273 285 293 305 301 293 220 200 195 253 262 230 272 262 269 233 240 273 258 278 284 287 281 284 302 316 315 312
33 60 17 324 353 352 326 357 350 0 337 13 3 30 307 279 268 247 279 296 281 283 282 161 234 198 251 261 271 268 277 276 257 256 256 275 278 281 294 293 297 302 304 300 299
39 11 347 309 320 342 5 13 341 329 268 302 23 317 294 246 231 281 263 250 247 294 226 203 275 233 277 268 257 262 268 267 271 271 261 272 281 315 319 307 303 311 311 308 305
28 360 333 334 352 33 211 319 321 2 299 320 327 298 273 269 305 294 283 270 260 282 232 208 221 51 263 331 319 286 255 257 262 270 197 281 284 4 324 314 311 315 311 303 298
Wind_Speed_850mb
18 19 20 20 20 19 19 18 16 13 18 20 19 23 24 27 23 25 27 28 33 38 42 26 24 6 11 6 1 3 9 3 6 8 11 11 10 9 9 21 17 17 14 16 15
20 19 19 20 21 21 19 17 16 17 22 22 19 16 20 30 37 34 30 34 38 41 44 45 38 25 19 13 9 10 7 11 8 4 5 14 10 24 9 16 20 38 19 21 27
22 20 20 21 23 22 17 14 14 19 23 19 13 14 15 14 25 22 29 34 31 35 41 43 39 15 15 12 19 4 6 7 5 9 30 11 12 12 7 19 48 41 50 40 32
24 21 21 22 23 21 15 13 15 20 19 15 13 16 17 12 8 19 22 25 28 31 28 34 42 13 10 8 20 5 3 6 13 34 31 14 19 12 8 29 50 55 55 48 41
24 23 23 23 22 18 12 15 18 19 16 14 14 16 14 15 15 20 23 26 30 18 31 33 33 16 8 9 15 5 9 34 41 42 36 19 23 10 10 47 43 41 41 36 37
24 24 25 25 22 16 14 16 17 16 13 11 16 20 14 10 18 16 17 18 23 22 20 25 18 21 4 6 2 11 22 31 29 29 12 10 14 9 22 38 47 48 46 41 40
23 23 26 25 21 17 15 12 10 9 6 9 14 18 6 9 5 2 9 13 17 18 21 22 25 16 15 15 9 12 14 19 10 8 7 16 16 14 19 40 47 58 62 62 62
21 21 24 22 20 17 15 10 7 3 5 10 14 21 7 6 3 3 11 15 15 12 18 24 21 21 6 7 14 11 8 9 13 15 7 11 17 10 16 34 41 50 58 61 62
17 17 18 18 21 20 15 9 4 5 9 15 19 14 8 5 9 4 8 11 12 15 20 21 12 2 4 7 10 12 8 9 17 10 8 4 17 14 27 26 44 54 57 61 65
16 11 11 11 15 19 17 13 7 12 13 19 15 9 8 16 10 9 6 18 12 20 15 18 6 7 7 9 7 14 7 11 13 13 12 14 23 6 30 34 45 50 56 49 52
24 8 4 6 9 10 17 7 14 3 26 29 29 31 39 9 14 27 22 18 17 9 4 10 12 4 11 10 15 10 8 15 10 18 6 14 22 8 25 28 35 43 42 47 44
28 11 2 3 6 7 10 13 13 16 20 29 32 37 36 32 21 29 21 7 9 7 2 12 4 16 9 11 4 8 5 10 10 9 10 20 38 14 12 15 32 12 31 39 50
30 13 5 9 3 10 17 15 13 24 7 18 6 9 10 13 18 35 14 16 11 7 9 11 16 7 5 7 11 5 2 10 15 9 12 12 35 11 10 7 9 14 28 37 37
31 16 8 13 7 7 7 11 20 17 8 8 2 7 7 9 8 21 27 24 5 16 7 9 9 1 3 4 3 8 5 10 19 13 10 6 28 5 3 8 6 22 26 37 40
32 19 6 19 10 2 11 17 12 8 6 6 4 7 25 2 16 38 14 5 9 10 10 19 6 4 3 5 4 11 10 11 19 10 6 10 5 11 7 5 10 16 13 29 35
32 20 7 13 13 10 20 8 1 9 1 7 7 14 14 21 11 28 22 17 15 4 3 9 9 5 7 4 8 11 9 12 9 5 3 5 7 11 8 8 9 8 20 15 27
29 18 7 15 8 17 18 2 9 9 8 9 7 9 3 11 10 11 12 14 6 11 9 12 9 5 8 6 7 19 13 9 11 8 9 7 8 18 13 15 11 8 13 10 13
25 7 8 14 3 16 8 8 8 6 5 4 7 7 6 14 6 15 12 11 7 6 2 2 11 7 6 4 6 4 11 9 10 6 11 10 12 12 16 14 13 10 6 5 22
17 10 12 5 12 17 7 9 8 2 4 7 8 8 9 10 6 12 10 4 3 3 3 5 8 9 9 5 8 5 1 6 3 4 7 9 13 16 11 17 17 23 11 19 23
14 12 13 11 18 14 8 2 4 8 1 5 3 2 4 7 9 14 9 5 7 3 5 7 13 8 2 5 4 6 7 1 4 7 9 9 11 15 13 17 17 14 19 27 36
9 8 10 14 17 8 7 2 5 12 15 5 8 6 5 4 3 4 9 14 11 9 5 5 7 9 4 8 14 5 4 3 5 7 6 8 12 10 23 25 14 18 26 29 44
12 7 26 13 8 6 3 9 10 7 16 5 5 2 5 4 5 7 13 13 20 2 7 2 6 9 19 21 9 12 15 11 8 11 10 11 28 23 18 7 17 39 38 41 52
13 9 19 12 7 8 16 11 9 13 8 11 3 3 5 2 7 7 8 14 40 6 7 4 4 8 20 11 3 7 10 11 5 6 20 17 16 8 17 25 38 34 35 48 58
14 8 13 21 16 6 9 9 12 22 3 12 5 9 7 6 10 11 16 14 10 32 47 11 10 17 20 29 7 23 25 27 11 9 21 27 43 47 33 21 27 36 50 57 69
14 7 9 8 10 11 3 10 10 14 16 18 10 9 7 8 8 10 7 9 19 37 9 11 15 14 28 37 30 37 41 37 31 37 22 42 41 40 27 13 18 37 40 51 68
11 11 11 8 17 11 10 8 7 11 7 9 6 14 12 10 13 12 8 8 17 7 7 2 13 7 20 30 29 34 36 45 41 32 29 25 28 9 16 24 31 44 58 69 79
19 13 7 6 9 5 1 6 9 11 15 7 12 9 10 11 24 46 55 60 42 12 6 8 6 2 10 7 16 17 21 22 8 6 8 15 30 6 21 25 50 60 73 78 78
Wind_Direction_850mb
49 54 55 49 39 28 20 20 29 75 121 120 104 89 65 56 75 100 74 54 36 30 28 33 39 3 3 28 79 126 60 38 310 28 275 301 352 4 344 342 339 346 332 342 4
54 56 51 43 33 26 22 24 40 94 120 121 107 76 52 74 86 86 66 44 30 30 29 29 20 54 49 41 46 71 96 216 224 276 330 327 330 322 338 316 320 329 335 338 326
55 55 45 34 27 21 22 36 67 106 123 120 90 44 40 106 81 70 61 47 36 27 28 21 21 43 52 46 16 1 136 210 300 21 346 311 303 313 328 320 314 311 312 313 314
50 50 41 28 20 17 29 60 90 114 116 97 62 39 44 54 90 84 68 50 35 31 20 17 16 42 44 24 349 20 9 65 313 329 338 320 312 291 248 298 320 313 306 298 291
49 44 32 22 18 23 56 83 103 111 106 88 44 28 48 66 103 75 58 37 25 32 30 17 21 24 6 342 353 52 323 325 324 323 323 328 336 315 324 359 349 346 342 319 300
42 38 31 21 27 49 75 98 109 110 98 60 37 28 44 62 101 61 39 26 24 20 10 2 351 355 349 346 71 313 303 299 311 319 315 13 316 21 324 0 353 353 348 340 333
35 36 30 32 45 68 81 103 114 110 59 28 10 4 356 57 104 35 24 22 6 20 348 341 330 318 317 332 347 315 326 335 3 9 301 357 330 320 332 343 339 338 333 329 321
27 30 32 43 54 70 71 78 98 100 1 352 338 335 302 250 312 4 358 357 29 24 336 333 325 278 240 288 351 360 47 4 294 330 320 66 277 263 322 330 320 331 330 322 319
11 23 32 52 69 64 52 36 349 295 311 319 315 329 297 289 246 282 13 9 12 353 350 357 347 299 29 60 2 2 261 277 312 283 312 180 262 254 311 312 318 324 327 323 319
356 2 29 60 76 59 44 28 307 262 284 306 296 299 240 336 249 280 274 309 297 309 333 352 15 67 43 68 292 276 265 256 255 283 215 255 261 262 310 313 313 317 321 321 316
0 336 9 85 102 67 46 32 22 27 307 275 265 270 279 288 273 269 290 300 237 273 22 355 47 295 248 211 227 254 230 248 267 262 281 240 270 265 254 291 302 315 345 338 332
1 341 270 159 128 48 25 43 41 336 303 294 270 265 263 273 292 306 273 212 183 242 89 14 268 237 249 278 262 284 286 314 304 355 318 292 285 267 214 234 284 2 358 355 355
1 353 191 162 119 84 68 60 2 341 315 303 337 272 286 247 247 283 261 216 182 200 228 163 245 304 314 2 23 330 116 294 271 302 262 284 280 283 263 309 318 331 345 350 351
353 354 205 188 161 140 16 6 344 344 55 288 31 24 355 253 284 316 289 238 195 207 235 219 288 277 341 131 98 316 285 320 307 326 280 160 290 217 332 320 300 335 358 356 356
342 338 246 205 188 205 321 309 323 307 40 310 33 31 3 69 16 6 10 281 219 227 107 244 280 297 159 218 220 238 329 265 287 255 334 285 356 263 351 316 307 304 352 10 21
333 327 267 209 193 277 310 309 359 47 254 344 35 3 18 3 11 4 11 18 317 349 342 256 288 83 180 275 111 266 340 349 44 86 3 263 99 267 277 234 291 305 56 24 6
333 323 274 198 211 297 316 217 45 112 343 355 337 351 124 343 12 24 349 3 25 2 344 329 312 103 35 4 354 37 41 332 346 360 233 261 320 243 264 254 237 288 48 72 46
345 3 125 137 250 320 340 56 83 55 356 22 334 341 73 18 18 352 8 354 7 91 162 128 315 332 353 151 272 281 149 161 258 235 268 313 239 253 227 266 307 284 143 12 347
13 111 123 99 343 334 338 61 181 243 276 347 328 53 344 14 351 12 330 259 162 49 63 316 260 277 304 148 119 274 167 189 200 248 274 243 282 315 271 289 288 336 325 322 331
66 83 81 5 340 325 66 149 134 343 117 78 93 339 298 311 22 5 328 289 337 174 160 249 288 252 237 13 14 138 180 39 15 288 255 267 266 245 295 280 280 290 289 306 325
33 76 6 337 322 330 107 217 312 20 352 189 212 245 232 279 223 259 259 299 35 305 318 120 140 271 260 215 223 319 311 131 136 218 279 290 258 219 287 294 274 276 278 297 317
27 55 9 334 24 20 40 321 318 340 346 296 111 139 232 273 261 248 231 217 358 60 324 276 187 256 249 259 261 183 204 175 129 264 230 270 275 254 251 259 306 292 288 302 321
9 346 13 29 58 345 327 319 336 348 5 26 54 73 350 266 333 238 259 286 311 11 323 234 295 333 313 352 7 188 194 208 177 162 240 266 272 242 282 297 275 255 292 317 316
5 9 18 62 75 85 353 314 333 347 61 357 323 47 344 260 223 273 285 293 305 301 293 220 200 195 253 262 230 272 262 269 233 240 273 258 278 284 287 281 284 302 316 315 312
33 60 17 324 353 352 326 357 350 0 337 13 3 30 307 279 268 247 279 296 281 283 282 161 234 198 251 261 271 268 277 276 257 256 256 275 278 281 294 293 297 302 304 300 299
39 11 347 309 320 342 5 13 341 329 268 302 23 317 294 246 231 281 263 250 247 294 226 203 275 233 277 268 257 262 268 267 271 271 261 272 281 315 319 307 303 311 311 308 305
28 360 333 334 352 33 211 319 321 2 299 320 327 298 273 269 305 294 283 270 260 282 232 208 221 51 263 331 319 286 255 257 262 270 197 281 284 4 324 314 311 315 311 303 298